Theta_e
310 309 309 310 311 312 313 314 317 315 313 316 317 318 320 322 326 327 327 327 326 323 320 319 319 323 329 331 331 332 332 322 316 320 321 319 319 320 321 321 322 321 321 322 322 323 324 324 325 324 325 328 329 328 325 322 321 321 323 326 326 328 328 328 329 327 324 320 321 323 324 325 324 323 323 324 324 326 326 326 329 326 326 326 323 329 330 325
310 309 309 310 311 312 312 313 316 317 314 315 318 318 318 320 324 327 327 326 326 325 322 319 318 321 328 329 329 332 328 320 318 321 321 320 319 319 321 321 322 321 321 321 322 324 324 324 325 325 326 328 329 329 327 323 320 322 325 327 328 330 328 327 327 325 323 320 320 322 324 325 325 324 323 324 324 326 326 326 328 327 327 325 321 326 325 323
310 310 308 310 311 312 312 313 314 317 315 315 318 318 318 319 322 326 327 326 326 326 323 320 317 319 324 326 327 328 323 319 321 322 320 320 320 320 321 322 322 322 321 322 322 324 325 325 325 325 326 328 329 329 328 325 321 322 325 327 329 329 325 323 323 321 321 319 319 320 322 325 325 324 323 324 325 325 325 325 328 327 329 328 324 324 322 321
310 309 308 309 310 311 311 312 313 316 315 314 317 318 318 318 321 326 326 326 326 326 325 320 318 317 320 324 327 324 321 321 322 320 319 320 320 321 321 321 322 322 322 322 323 324 325 325 325 326 327 329 330 329 329 326 324 325 324 326 329 328 325 322 321 319 318 318 319 319 319 323 324 323 323 324 324 325 325 325 327 326 328 331 327 324 322 321
310 308 308 308 309 311 311 311 312 314 315 313 315 317 318 319 320 324 325 326 326 326 325 321 319 317 317 322 325 323 321 322 321 319 320 319 319 321 321 321 322 323 323 322 323 324 325 326 326 327 328 330 331 329 329 327 326 326 324 327 327 324 325 322 319 317 316 317 318 318 318 320 323 323 323 324 324 323 325 324 325 324 326 330 326 323 322 321
310 309 308 309 309 311 311 311 312 313 315 313 314 315 316 318 319 322 324 326 327 326 324 322 321 318 318 321 323 321 321 323 322 322 322 318 320 321 321 321 321 322 323 323 324 324 325 326 327 329 329 330 331 329 330 329 326 325 325 327 325 323 323 320 317 316 315 316 318 318 318 319 320 321 322 323 324 324 323 323 324 324 326 329 325 322 322 321
310 309 309 309 310 311 311 311 311 312 314 313 312 314 314 316 318 320 323 325 326 327 324 325 324 322 323 322 321 321 321 323 323 324 322 319 321 321 321 322 320 322 323 322 323 324 325 326 328 329 330 330 332 330 331 330 325 325 328 325 324 322 321 318 316 315 314 317 317 317 317 318 319 319 321 322 323 323 322 323 322 322 328 330 325 321 322 321
309 309 309 309 310 311 311 311 311 312 313 311 310 311 311 314 317 318 321 323 325 326 325 326 325 325 326 321 320 321 320 323 323 324 323 320 320 320 321 322 321 322 322 321 323 324 325 326 328 329 330 331 331 331 331 329 324 325 329 325 322 320 318 316 315 314 314 315 315 316 317 318 319 318 319 320 320 322 321 322 320 321 328 329 324 320 321 322
309 308 308 309 310 311 312 312 312 312 312 311 309 310 309 311 315 316 318 321 324 326 326 325 324 325 325 320 319 320 320 322 323 324 324 321 319 321 321 321 321 322 321 320 322 324 326 326 328 329 331 332 331 331 329 328 327 326 329 327 321 318 317 315 315 315 314 315 314 315 317 318 318 316 318 319 319 320 320 321 319 320 326 328 326 323 321 322
309 308 308 309 310 310 311 311 312 312 311 311 310 311 310 309 312 314 315 318 322 325 326 324 324 325 323 320 318 319 320 320 322 323 323 321 320 320 321 321 321 322 320 320 321 323 325 326 328 328 328 329 329 329 328 328 326 326 329 327 322 320 317 316 316 315 314 315 314 315 318 318 316 315 318 320 318 319 320 321 320 321 325 327 328 327 323 322
309 308 308 309 310 310 311 311 311 311 310 310 311 312 312 310 310 312 314 315 318 323 325 323 323 324 322 320 318 319 320 320 321 322 321 320 320 320 321 321 322 322 320 319 321 323 325 325 325 326 326 327 328 327 327 326 323 324 327 324 322 320 318 317 316 316 315 315 315 316 318 317 316 315 318 320 318 319 320 321 322 321 323 326 328 329 325 324
308 308 308 309 309 310 311 310 310 311 310 310 313 313 314 314 311 312 314 315 316 321 325 322 322 324 322 320 320 320 321 320 320 321 321 320 321 320 320 321 322 323 322 320 321 322 324 324 323 326 326 325 326 325 325 324 322 323 324 323 323 322 320 319 317 317 316 316 316 316 318 317 316 316 317 319 317 318 320 322 323 321 322 325 328 330 327 326
308 308 308 309 309 310 310 310 310 310 310 311 314 314 315 315 312 310 312 314 314 318 324 323 321 324 321 320 321 322 322 321 320 321 322 321 321 321 320 320 321 323 325 323 322 322 322 323 323 324 323 323 324 323 322 322 321 322 323 324 325 323 323 323 321 319 317 317 316 317 321 322 320 318 318 318 317 318 320 322 324 323 323 324 328 331 328 327
307 308 308 308 309 309 309 309 309 309 310 311 314 315 316 315 312 310 311 313 313 316 323 323 321 323 321 320 321 321 321 321 321 321 322 321 320 322 321 320 321 323 324 324 324 323 323 323 321 321 320 321 322 320 319 319 320 322 323 324 325 324 325 327 324 320 318 318 315 318 324 327 327 323 319 318 318 319 320 322 323 323 323 325 329 330 329 328
308 307 308 308 308 309 308 309 308 308 309 310 312 315 316 315 312 310 311 313 313 316 322 323 322 322 321 321 322 321 320 321 321 321 322 321 321 323 322 320 320 322 324 325 325 325 326 323 319 320 320 319 320 319 319 319 320 322 322 323 325 325 326 327 325 320 320 318 314 319 324 326 330 327 319 318 318 319 320 320 322 323 324 326 328 327 326 327
308 308 308 308 308 309 308 308 309 308 309 310 311 314 315 314 311 309 310 313 314 315 319 323 323 322 321 322 322 321 321 320 321 322 322 322 323 323 322 321 320 321 322 323 323 324 326 322 318 320 319 318 319 320 321 320 321 322 321 323 325 324 323 323 321 320 321 318 314 318 324 325 328 324 318 316 318 318 319 320 320 322 324 326 327 325 323 326
309 308 308 309 308 309 308 308 309 309 309 310 311 313 314 313 311 309 308 311 314 314 316 319 322 322 322 322 322 321 321 321 321 323 323 323 324 323 322 321 320 320 320 321 322 324 324 320 319 320 319 319 320 321 322 322 322 322 321 322 323 323 323 321 319 319 319 317 315 316 319 323 323 320 317 315 317 318 318 319 320 320 324 326 328 327 325 326
308 309 308 308 308 308 308 308 309 309 308 310 311 312 314 313 311 309 309 310 312 314 314 314 318 323 323 321 321 321 321 321 321 322 323 323 323 323 322 321 320 320 320 320 321 323 322 319 319 321 321 320 321 322 323 323 323 322 321 322 323 322 323 323 319 318 317 316 317 317 316 319 320 320 319 316 315 317 319 319 319 320 321 324 326 327 326 324
308 309 308 308 308 308 308 307 309 308 308 310 311 312 313 313 311 309 309 310 312 314 313 313 316 321 323 321 321 322 321 321 321 322 323 323 323 323 322 321 321 321 320 321 321 320 320 320 320 323 323 322 323 323 323 324 323 323 322 322 323 322 322 324 320 317 317 317 317 318 318 318 319 321 322 319 316 316 318 318 318 319 318 320 322 323 325 324
308 308 308 308 308 308 308 307 308 308 308 309 311 313 313 312 310 309 309 308 310 313 313 313 315 317 319 321 321 321 321 321 321 322 322 322 322 322 322 321 320 321 322 323 322 320 320 321 322 324 324 323 324 324 323 324 324 323 323 322 323 323 323 324 319 315 316 317 317 318 319 319 320 320 322 322 319 317 318 318 318 318 317 318 318 320 321 320
308 308 308 308 308 308 308 308 308 308 307 309 311 313 312 310 309 309 308 307 307 311 312 312 313 315 317 319 322 321 320 321 321 321 321 321 321 321 321 320 320 322 323 323 322 320 321 323 323 323 324 324 324 323 323 324 324 324 323 322 323 323 324 324 320 316 316 317 319 320 320 320 319 320 320 321 320 319 318 318 318 318 318 318 318 318 317 316
308 308 308 308 308 308 308 308 308 308 308 308 310 311 312 310 309 310 309 308 307 308 311 311 311 313 314 317 321 321 320 321 321 321 320 320 321 320 320 320 321 322 322 322 322 321 322 324 324 323 324 324 324 323 323 324 324 325 325 324 323 324 324 322 319 317 316 319 323 323 322 322 321 321 322 322 320 320 319 318 319 318 318 318 318 318 317 316
308 308 308 308 308 308 308 308 308 308 308 308 309 311 311 310 310 309 308 309 309 308 310 310 309 311 312 314 318 321 321 321 321 321 320 319 320 320 320 321 321 322 323 322 322 323 324 324 323 324 324 324 324 323 324 324 324 325 325 325 324 325 326 324 320 318 316 319 321 320 321 322 322 321 322 323 323 321 320 319 318 318 318 318 318 318 318 317
308 308 308 308 308 308 308 308 308 308 307 308 310 311 311 310 310 309 309 311 311 310 310 310 309 310 311 312 315 318 321 321 320 320 320 319 319 319 320 321 321 323 323 321 322 324 326 324 323 324 324 324 325 324 324 324 324 326 325 325 325 325 326 324 320 317 316 317 317 318 322 322 323 324 323 324 324 323 321 319 318 317 317 317 317 317 318 317
307 307 308 308 308 308 308 307 308 308 308 309 311 311 310 310 310 308 310 311 310 311 312 311 310 309 310 311 312 315 317 320 320 320 320 318 319 319 320 321 323 324 322 320 322 324 324 324 323 323 323 324 324 324 325 324 324 326 326 325 325 325 326 323 319 319 321 322 318 318 324 325 324 325 325 324 325 324 322 319 318 318 317 317 317 317 316 316
308 307 308 308 308 308 307 308 307 307 308 309 311 311 310 310 309 309 310 309 309 311 311 311 311 311 311 311 311 313 315 317 319 320 320 319 319 320 321 323 323 324 322 319 323 324 322 323 323 322 323 324 325 324 324 324 325 326 326 325 325 325 326 324 322 323 326 326 318 315 322 324 323 323 325 324 324 324 323 321 319 320 319 317 317 316 316 316
307 307 307 307 307 307 307 308 307 307 308 309 309 310 310 310 309 309 309 307 307 311 311 311 312 313 312 311 311 313 315 316 318 320 319 319 319 319 322 324 323 324 321 321 327 325 320 322 323 322 324 325 325 324 324 324 325 326 325 325 325 324 325 325 324 325 326 324 318 315 318 322 321 321 323 323 323 323 322 322 321 321 321 319 317 317 316 316
307 307 307 307 307 306 307 308 307 308 308 308 309 309 310 310 308 308 308 307 308 310 311 311 312 313 313 313 312 312 315 318 320 319 318 319 319 318 321 322 322 323 322 324 328 322 318 323 323 322 324 325 325 324 323 324 325 323 322 324 324 324 325 325 325 326 323 320 322 320 318 321 322 321 322 321 321 322 322 321 321 321 321 320 318 317 316 316
306 306 306 306 306 306 307 307 307 307 307 307 308 308 309 309 308 309 308 309 312 311 310 312 312 312 313 314 313 312 314 317 318 317 317 318 318 318 320 321 321 323 322 322 323 319 318 321 322 322 324 323 324 323 323 326 324 320 319 322 322 322 322 322 323 323 320 319 323 323 319 321 323 321 321 321 319 321 322 321 322 322 321 320 319 318 317 316
305 305 305 306 306 306 307 307 307 307 306 306 307 307 309 308 307 309 308 309 313 312 312 314 312 313 315 315 315 314 314 315 315 314 315 316 316 317 318 318 321 323 320 317 316 315 314 316 319 321 321 322 322 319 321 323 321 318 318 319 319 318 318 319 319 318 321 324 324 322 321 320 322 322 321 322 320 320 321 321 322 323 321 320 320 319 318 317
305 305 305 306 306 306 307 308 307 307 306 305 306 307 307 307 307 309 309 310 313 314 314 314 313 315 315 314 315 315 315 315 314 314 315 315 315 317 318 319 319 320 320 317 314 313 313 315 318 316 316 320 320 315 315 317 316 318 319 319 320 319 318 319 318 317 324 327 321 319 321 320 321 322 321 323 322 319 320 321 321 322 322 321 320 319 319 319
304 304 305 305 306 306 306 307 306 306 305 304 306 307 307 307 308 308 309 309 311 314 315 314 314 316 315 314 315 314 314 315 314 315 315 316 317 318 319 320 319 319 321 320 317 315 315 316 316 313 313 317 320 318 315 314 316 319 321 321 324 323 322 325 322 319 325 325 315 313 317 318 319 320 320 321 321 318 319 320 320 321 322 321 320 320 319 319
304 304 304 305 305 305 305 306 306 306 305 305 307 307 306 306 308 308 308 308 310 313 315 315 315 315 315 315 315 314 314 314 314 315 316 316 318 318 319 319 318 320 322 321 319 317 317 316 313 313 314 316 320 321 317 316 317 321 322 324 326 325 325 329 325 322 325 322 313 312 315 317 318 318 319 319 320 321 319 319 319 318 319 319 319 319 319 318
303 303 303 304 305 305 305 305 305 306 306 306 308 307 304 305 307 307 308 308 310 312 314 315 315 315 315 315 315 315 314 315 315 315 316 317 317 318 319 318 318 321 322 320 319 318 320 318 315 314 315 315 319 321 319 317 318 321 322 323 325 324 326 329 327 325 326 319 313 313 317 320 320 318 317 316 317 318 317 317 316 316 316 316 316 316 315 315
302 302 303 303 304 304 304 305 304 305 306 307 307 306 303 304 305 306 307 308 310 312 313 315 315 316 316 315 315 315 315 315 316 315 315 316 316 316 318 318 318 320 322 321 319 319 321 319 314 313 313 313 318 320 317 317 317 318 320 323 325 323 323 324 321 320 321 318 315 315 316 319 319 318 317 316 316 316 315 315 314 315 315 314 314 313 312 312
302 302 302 303 303 303 303 304 303 304 306 306 306 305 303 303 304 306 307 307 310 312 312 314 316 316 316 316 316 316 315 315 316 315 314 313 314 315 316 317 318 319 322 322 319 320 322 317 311 311 311 311 315 317 315 319 319 317 319 323 322 320 321 322 318 314 316 321 321 316 315 317 317 319 319 318 318 316 316 315 314 315 315 315 315 314 313 312
302 302 302 303 303 303 303 303 303 304 305 305 306 305 304 304 305 307 307 307 310 312 312 314 317 316 316 316 316 316 315 315 316 315 314 313 314 315 315 317 318 318 320 321 319 320 321 315 309 311 313 311 310 313 315 317 317 317 320 321 318 318 319 319 320 319 318 322 323 318 318 318 317 319 320 319 319 317 316 315 315 315 314 315 316 315 314 313
302 302 303 303 303 303 303 303 303 304 305 305 305 305 305 306 307 307 308 307 309 310 310 312 315 316 316 316 316 315 315 315 315 315 314 313 315 315 315 316 317 317 318 319 319 319 318 314 310 310 313 311 310 314 316 313 312 316 319 318 318 321 321 319 321 323 322 322 323 320 318 317 317 318 318 318 319 318 317 317 316 315 314 315 316 315 315 313
302 302 302 302 302 302 302 303 303 304 304 304 303 304 305 306 306 307 308 308 309 310 309 311 313 314 315 316 316 315 315 316 315 315 315 314 315 315 315 317 318 317 317 317 317 318 318 317 312 309 310 311 311 315 317 315 312 313 316 317 319 321 322 321 321 322 322 322 322 321 318 317 318 318 318 318 318 317 318 318 317 315 315 315 315 315 316 315
301 301 301 302 302 301 301 303 303 304 303 303 303 304 305 305 306 307 307 308 309 310 309 311 311 310 312 315 316 315 315 316 315 315 316 315 315 315 315 317 318 317 318 316 315 317 318 318 315 309 309 311 313 315 317 317 314 313 315 319 319 319 318 319 322 322 321 320 321 322 320 318 316 316 317 318 318 318 318 318 319 318 316 315 315 316 316 315
301 300 301 301 301 301 301 302 303 303 303 302 302 303 304 304 305 306 306 306 307 308 309 310 309 309 310 313 316 315 316 316 315 315 316 315 316 316 315 316 317 318 318 316 316 317 317 317 314 310 310 312 314 313 313 314 315 315 316 318 319 319 317 319 323 321 319 318 318 319 320 319 315 314 315 316 316 316 316 317 318 317 316 316 315 315 313 312
300 300 300 300 300 301 301 302 302 302 302 302 303 303 304 304 304 305 306 306 306 306 308 309 309 310 310 310 312 314 315 316 315 316 317 316 315 316 316 316 317 318 319 318 317 316 315 315 313 311 311 312 311 309 309 311 315 316 316 318 319 319 318 321 323 320 317 316 314 314 316 317 314 313 313 314 313 312 312 314 315 314 314 314 314 313 311 310
299 300 299 299 300 301 301 300 301 301 301 302 303 303 303 304 304 304 305 305 306 306 306 307 309 310 310 309 309 310 314 317 316 315 317 317 315 316 316 316 316 317 319 319 318 315 314 314 313 312 312 310 309 309 309 311 315 315 316 317 318 319 319 320 319 317 316 316 315 316 318 318 315 313 312 312 312 311 310 311 312 313 313 313 312 311 311 311
299 300 299 299 300 301 300 299 300 300 301 301 302 302 303 303 303 303 304 304 305 307 306 306 307 309 311 310 309 309 312 315 316 316 316 317 316 316 316 316 316 317 318 318 318 317 315 315 314 312 313 313 311 311 311 312 313 314 315 316 317 319 319 316 314 314 316 318 318 319 320 319 316 314 312 311 311 311 311 310 311 312 313 313 311 310 311 311
300 299 299 300 300 301 300 299 300 300 301 301 301 302 302 303 303 303 303 304 305 306 307 307 308 308 310 311 310 310 310 311 314 316 316 317 316 314 315 316 316 317 317 316 315 316 316 315 315 314 314 315 315 314 314 313 312 312 315 316 316 318 317 315 314 315 316 318 318 318 320 319 316 314 313 311 311 312 311 311 310 310 312 313 312 310 310 310
299 299 299 300 300 300 300 301 301 300 300 300 301 301 302 302 303 303 303 303 303 305 306 307 308 307 309 311 311 311 310 309 311 313 315 317 315 312 314 316 316 316 316 315 315 315 315 315 315 315 316 316 317 317 315 314 313 313 315 316 316 317 317 316 316 317 317 318 318 317 319 319 317 315 314 313 312 313 312 312 311 311 312 312 311 311 310 310
298 298 299 299 300 300 300 301 301 300 300 300 300 300 301 301 301 302 302 302 302 304 305 306 307 307 308 310 311 312 311 310 309 310 312 314 312 311 313 316 316 316 315 314 314 314 315 315 315 316 316 317 317 317 315 314 314 313 314 315 315 316 317 317 317 318 318 319 319 318 318 319 318 315 315 314 313 313 313 312 313 313 312 311 310 310 310 310
298 298 299 300 300 300 300 300 300 300 300 300 300 300 300 300 300 301 302 302 301 302 303 305 306 307 308 309 310 311 312 312 311 310 311 312 311 312 314 316 315 315 314 313 313 314 315 316 315 315 316 317 316 316 314 314 314 313 313 314 314 315 316 316 317 317 318 319 319 319 319 318 317 316 316 316 315 314 313 312 312 312 311 310 310 310 310 311
298 298 299 300 300 300 300 301 300 300 300 300 300 300 300 300 300 301 302 302 302 301 302 303 305 307 307 307 309 311 312 313 312 311 311 311 312 313 315 316 314 313 314 314 314 314 315 316 314 314 315 315 314 315 315 315 314 314 313 313 313 314 315 315 315 316 317 317 317 318 319 318 317 317 316 316 316 313 311 311 311 310 311 311 310 310 310 311
298 298 299 299 300 299 300 301 300 300 301 300 300 300 300 300 300 301 302 303 302 302 302 302 303 305 307 307 308 309 311 312 313 313 312 311 312 313 315 316 314 312 314 314 313 314 315 316 315 314 315 315 313 314 316 315 314 314 314 313 312 313 314 314 315 315 316 316 316 317 318 317 316 316 316 316 315 312 312 312 312 312 312 311 311 311 311 311
298 298 299 299 299 299 299 300 300 300 300 300 300 300 301 300 300 301 302 303 303 303 303 302 302 303 305 307 308 308 310 311 312 313 313 312 312 313 314 315 314 313 313 314 313 314 315 316 315 314 316 316 312 312 315 316 314 315 314 313 312 312 313 313 314 315 315 315 316 316 317 316 316 316 316 316 315 314 315 315 314 314 313 312 312 312 311 312
297 298 298 299 299 299 299 299 299 300 300 300 301 301 301 301 301 301 301 302 303 303 303 304 303 303 304 306 308 308 309 310 311 312 313 312 312 313 313 313 313 313 313 314 314 314 314 315 315 314 317 318 313 312 315 315 315 315 314 313 313 312 313 313 313 314 314 315 316 316 316 315 315 315 315 315 314 314 315 315 315 315 314 314 313 312 312 313
Wind_Speed
36 37 38 37 36 37 37 34 30 33 36 33 34 37 36 33 33 35 35 32 32 37 38 35 34 33 38 38 34 36 36 37 39 39 41 42 42 38 37 33 25 27 28 24 22 20 17 15 13 11 10 10 9 8 8 6 5 6 6 7 7 8 7 6 8 5 2 5 7 7 8 7 7 9 7 7 9 6 6 8 7 9 10 8 4 6 10 12
35 36 37 36 35 36 37 36 31 30 35 34 33 35 36 35 33 35 36 34 32 34 36 35 35 35 37 39 39 37 36 40 41 43 46 44 44 42 39 34 28 26 28 26 23 21 18 17 15 13 13 11 9 8 8 7 7 8 6 7 8 7 3 3 4 3 2 4 7 7 8 7 5 10 10 7 10 11 9 9 11 9 10 12 9 8 11 12
35 35 37 36 34 35 36 36 32 30 33 34 34 34 35 36 34 34 37 36 33 34 35 35 36 36 35 37 40 37 37 40 41 46 51 47 44 43 39 34 29 26 26 24 21 20 18 17 15 14 14 12 10 9 9 9 9 10 7 6 9 6 3 4 3 4 4 4 6 7 7 7 5 8 10 9 10 12 11 10 12 12 13 13 13 13 11 12
35 35 37 36 34 35 35 35 33 30 31 34 35 36 35 35 35 33 36 36 33 34 35 34 35 37 36 35 38 39 38 31 38 52 53 49 45 42 40 35 29 27 26 21 18 18 17 16 15 15 15 14 12 10 10 11 10 9 8 8 6 4 4 5 5 5 5 4 5 7 7 7 7 8 9 9 9 9 12 13 13 13 14 16 16 16 13 12
34 35 35 35 34 34 35 35 34 31 29 33 35 37 36 35 37 33 33 35 33 35 36 33 33 36 36 35 38 40 33 15 27 53 53 50 48 42 40 38 32 26 25 24 21 18 16 17 15 16 15 13 13 11 12 15 12 8 10 13 7 3 5 6 7 6 7 4 4 7 6 6 8 8 10 11 10 4 3 9 12 11 12 17 18 18 16 14
34 34 34 34 33 34 35 34 34 32 29 31 33 36 34 34 38 33 31 32 32 36 35 32 32 32 33 35 36 37 33 9 7 37 51 51 48 44 41 39 35 28 25 24 22 19 16 17 16 16 15 13 14 12 14 17 13 8 9 14 10 6 5 6 7 6 7 5 5 6 4 6 7 8 11 14 14 3 3 2 7 7 10 16 17 18 18 16
35 35 34 33 33 33 34 33 33 33 29 29 32 34 33 34 37 35 31 27 30 36 34 33 32 30 32 34 33 33 38 19 3 18 44 53 48 44 42 40 37 28 24 22 19 19 18 19 19 18 14 12 15 15 16 16 14 11 7 8 10 7 3 4 5 5 6 4 4 3 3 6 8 6 7 13 16 10 8 6 5 5 10 15 16 18 19 18
35 36 35 33 33 32 33 32 32 32 29 27 30 32 32 34 36 36 33 24 27 33 33 33 32 32 34 35 35 29 37 31 8 8 30 51 51 45 43 39 36 29 24 22 18 20 20 21 22 19 14 13 14 15 15 12 12 14 9 5 7 6 4 4 3 4 5 5 3 3 4 7 6 3 4 11 14 11 13 13 9 7 10 14 16 17 19 20
34 35 35 33 32 32 32 31 30 30 28 27 28 29 31 35 36 35 34 26 24 31 34 34 34 34 32 37 37 25 34 36 14 6 19 46 53 48 44 39 36 31 27 22 19 21 21 21 24 19 15 15 14 11 13 11 7 12 13 8 7 8 6 4 4 5 5 5 5 5 7 7 5 4 7 14 13 10 13 15 13 10 11 13 15 17 19 20
33 33 34 32 31 32 32 31 29 27 27 26 26 26 28 33 37 35 34 30 23 30 39 37 36 36 33 38 33 18 31 38 23 9 15 40 54 49 44 40 38 33 29 24 18 20 20 18 21 18 13 12 12 9 11 10 2 5 13 10 8 9 8 6 6 7 6 5 7 8 8 6 6 4 7 10 11 10 12 13 13 13 13 13 14 16 17 19
33 33 33 32 31 31 31 30 28 26 26 25 25 26 25 28 33 33 32 31 24 27 40 41 38 39 37 39 31 18 29 38 35 23 14 28 47 52 46 40 40 36 31 28 21 20 20 16 16 15 8 7 10 8 9 8 2 2 9 8 9 10 8 9 8 8 6 6 9 9 7 5 6 7 9 7 9 10 11 12 13 14 14 13 14 15 17 18
33 33 32 32 31 31 30 29 27 26 25 24 24 25 25 25 28 30 29 28 24 25 38 42 39 40 37 39 38 30 31 35 41 35 17 18 30 45 49 40 39 38 33 32 28 24 22 17 17 15 6 5 9 6 6 9 5 4 8 7 10 10 9 13 13 11 10 7 9 6 7 8 9 11 13 10 9 8 10 13 14 15 15 14 14 15 17 18
34 33 33 33 32 30 29 28 26 25 24 24 23 23 24 24 26 30 30 28 24 24 36 39 36 40 36 30 37 39 32 30 39 37 25 20 18 28 44 44 40 38 34 32 30 27 21 17 19 16 6 8 8 5 4 10 8 7 9 8 8 8 9 15 16 12 11 8 10 7 7 10 12 17 18 17 16 11 10 13 13 15 15 15 15 16 17 18
35 34 34 33 31 30 28 26 26 24 23 24 23 22 22 22 24 28 29 31 30 26 35 39 36 41 39 26 28 39 35 27 35 39 33 32 26 22 37 49 43 37 33 29 28 25 20 16 16 12 8 9 6 7 6 8 9 8 8 7 6 7 8 14 17 14 11 7 11 9 8 8 10 16 21 21 19 14 13 13 13 14 15 16 17 17 18 19
35 35 34 33 31 29 27 26 25 25 25 25 24 22 21 24 27 28 27 30 30 28 33 41 43 40 32 22 20 33 37 27 27 33 36 38 31 23 35 50 49 39 34 29 24 21 19 17 13 8 7 7 7 9 7 6 7 7 7 7 7 7 5 11 16 17 12 7 12 11 7 9 12 10 16 18 17 15 14 14 13 15 16 17 18 19 20 20
34 34 34 32 30 28 27 27 25 26 25 25 24 23 22 25 28 30 30 30 25 25 29 36 50 42 18 13 18 29 37 30 23 23 28 31 27 27 36 47 50 41 35 30 23 19 19 16 10 7 7 8 8 9 7 6 7 8 8 7 8 9 5 7 12 17 15 8 13 14 8 7 8 7 12 14 15 13 14 14 14 16 16 17 17 19 21 19
33 34 33 31 30 28 29 28 26 25 24 23 24 23 23 25 29 28 31 37 25 19 24 21 40 43 14 11 19 28 38 34 27 23 21 23 23 29 37 42 43 39 34 28 23 20 18 13 7 6 8 8 8 9 8 9 8 8 8 7 8 11 9 6 7 12 15 9 11 14 11 10 6 6 10 11 13 13 14 15 15 15 14 15 15 16 19 20
33 33 33 31 30 29 29 29 27 25 24 24 23 23 24 25 30 28 28 40 30 15 18 20 23 28 10 15 23 28 40 37 31 28 23 24 23 26 34 37 38 37 29 21 18 20 17 12 7 5 7 9 10 11 10 10 10 10 9 7 7 11 12 9 5 9 15 11 11 12 12 15 14 9 9 11 13 12 13 13 14 14 13 13 13 15 17 20
33 32 33 32 31 30 29 29 27 25 25 25 23 21 23 23 25 26 26 35 29 9 6 14 14 6 1 21 30 29 40 39 33 30 28 30 26 26 31 32 36 35 25 14 11 17 15 9 7 7 8 12 14 14 12 9 10 12 11 10 9 8 11 9 4 7 12 10 11 13 12 15 16 16 15 13 14 13 14 13 13 12 12 13 14 15 16 20
32 31 32 31 31 30 29 30 27 26 26 25 27 24 22 20 13 14 22 29 29 13 2 7 9 10 3 21 30 28 36 36 31 31 31 32 32 32 31 29 29 25 18 11 9 16 16 7 7 11 12 16 17 17 15 10 9 11 12 12 11 7 8 9 6 7 8 7 10 14 14 16 15 14 16 16 15 14 16 16 14 13 13 14 14 15 17 20
32 31 32 31 31 30 29 30 28 27 26 25 30 25 18 22 12 9 20 21 30 29 14 10 8 8 3 13 23 31 35 31 28 30 29 31 34 30 28 27 18 11 12 11 10 12 12 8 11 15 15 18 18 16 15 13 9 9 11 10 10 9 6 5 7 7 6 5 8 11 14 16 16 14 15 16 15 16 18 18 17 17 16 16 16 18 20 21
33 32 32 31 31 31 30 30 28 26 25 23 29 25 17 26 20 13 17 11 20 34 25 16 12 13 11 4 20 33 33 24 23 30 30 33 35 26 24 24 13 10 14 12 9 8 8 10 13 17 15 16 16 15 15 13 10 9 9 8 8 8 4 4 7 7 6 4 7 9 12 13 14 14 15 17 18 19 20 20 20 19 18 18 18 19 22 23
34 32 32 32 31 31 30 29 27 25 26 24 28 26 19 26 23 11 11 6 7 24 28 25 20 20 22 8 14 27 27 22 20 29 35 34 31 27 26 23 15 15 15 12 11 10 8 9 15 19 17 17 16 16 15 10 8 8 8 8 7 8 7 5 6 7 6 5 5 7 9 11 12 13 13 18 22 22 21 21 21 19 19 20 19 19 24 27
33 33 32 33 31 31 30 28 27 26 27 25 23 23 19 23 23 12 8 4 1 10 20 29 27 25 26 14 5 14 16 20 22 27 36 35 29 25 25 23 20 17 13 15 17 13 7 7 17 22 18 19 18 18 17 11 7 10 10 9 7 8 8 3 4 5 4 5 5 5 8 9 12 14 13 15 20 21 22 22 21 20 20 21 21 21 24 27
32 32 31 32 31 30 30 28 28 27 27 24 20 21 19 20 22 15 8 3 2 4 8 18 23 28 31 17 8 6 3 10 22 30 38 40 31 20 20 23 18 13 16 20 18 13 8 11 20 22 18 22 20 17 20 14 9 10 12 12 9 8 8 4 4 3 3 5 5 4 8 7 9 15 14 12 14 17 20 22 22 23 23 22 23 25 27 30
31 31 31 32 30 31 30 26 27 26 24 22 21 22 20 19 22 18 9 2 4 5 6 11 14 17 25 20 14 9 2 3 16 29 38 41 33 18 15 18 11 11 19 18 12 8 7 15 21 20 20 22 19 15 18 16 9 8 10 13 11 8 8 6 4 3 5 5 3 4 8 6 5 10 10 8 10 13 16 18 22 27 26 24 25 28 32 35
30 30 31 31 31 32 27 22 25 26 23 21 22 24 21 21 25 19 8 1 4 6 8 10 10 8 14 18 18 10 2 4 11 23 35 40 33 18 11 11 7 11 17 12 8 5 9 20 21 21 21 18 15 14 16 18 11 4 8 13 12 8 7 6 4 4 6 4 0 5 7 8 8 9 9 9 10 11 13 14 18 25 27 26 25 29 36 39
30 30 31 31 31 30 24 20 26 26 22 21 23 25 22 23 25 16 5 3 3 7 8 9 9 8 10 14 20 14 5 9 10 16 34 40 31 14 7 9 9 15 20 15 11 6 11 23 23 22 20 15 16 15 15 18 10 1 6 10 11 9 7 4 4 5 4 4 5 7 5 6 9 6 9 13 14 14 15 16 17 20 24 27 27 28 34 39
28 29 31 31 31 28 21 20 26 24 19 20 23 23 22 25 22 8 3 4 3 4 6 12 11 9 10 11 17 17 9 4 4 12 31 35 27 12 4 7 9 14 19 13 8 5 7 18 22 22 17 14 17 14 15 17 8 2 5 6 6 4 3 3 3 4 2 4 8 7 6 6 8 5 7 10 12 14 15 15 16 20 24 27 29 27 28 35
27 28 30 31 30 26 20 18 23 23 20 22 24 23 23 22 12 3 6 4 2 4 7 14 14 13 14 10 10 13 10 2 3 12 21 19 19 14 6 7 6 7 8 3 4 5 4 8 14 14 11 14 13 5 5 11 8 8 7 7 7 4 4 3 1 1 3 8 8 8 11 8 7 5 6 8 10 10 11 12 12 18 23 25 27 28 28 34
26 27 28 29 27 24 21 19 21 22 23 24 25 25 21 13 4 4 7 0 3 6 8 11 14 16 17 12 7 9 9 3 5 10 10 7 11 11 7 6 1 3 4 4 5 3 6 7 6 4 4 11 14 7 5 7 11 10 7 6 6 3 3 2 2 3 5 8 2 3 10 11 8 4 3 7 9 6 8 12 11 13 18 21 25 27 28 32
26 26 26 26 24 21 19 21 23 23 25 27 28 27 17 6 4 5 3 2 2 6 8 11 14 15 17 13 8 10 9 5 7 10 8 7 9 9 8 8 5 4 5 7 5 4 7 5 1 4 3 10 15 9 3 5 9 9 7 8 7 4 4 4 4 4 7 6 2 2 3 8 12 9 7 11 11 7 8 11 11 11 14 16 18 21 23 26
25 25 25 24 22 19 18 22 26 25 28 33 30 20 10 4 5 6 3 1 1 1 7 14 16 15 18 14 9 10 10 6 7 10 9 9 9 12 13 10 8 3 3 9 9 7 6 0 1 5 4 9 14 12 7 6 10 12 10 10 9 6 5 6 6 4 7 4 3 4 2 6 10 9 11 16 17 16 13 12 13 12 11 10 9 11 15 19
24 25 24 23 21 20 19 23 27 24 29 35 25 13 9 6 5 6 5 2 2 2 5 13 18 17 18 14 10 11 8 5 9 9 7 9 8 10 12 11 10 3 2 8 6 7 9 3 6 9 5 9 14 13 9 7 9 11 9 8 8 5 5 6 7 7 6 2 3 5 4 6 6 1 3 8 11 12 11 9 10 11 11 10 10 10 11 13
23 22 22 21 19 19 20 24 25 22 26 27 14 7 11 8 5 7 6 2 1 1 2 9 16 17 14 12 12 14 7 3 10 9 5 9 7 8 10 10 13 6 4 9 3 5 10 3 3 6 1 7 12 9 11 12 6 5 4 6 7 4 5 4 2 4 3 0 3 6 4 6 5 6 8 8 7 9 10 10 11 14 14 12 13 15 14 12
22 21 19 19 20 20 20 22 23 20 22 19 8 6 10 7 5 6 6 5 4 3 3 6 12 13 11 9 10 14 6 2 11 8 4 8 6 8 10 8 13 11 7 9 4 5 9 2 2 3 1 5 6 5 13 14 7 4 4 7 4 1 3 5 2 2 1 5 5 6 6 7 6 11 13 14 13 10 10 11 12 15 15 13 12 13 13 12
24 22 18 18 20 21 19 20 22 19 17 13 7 7 8 6 5 3 6 8 7 5 4 4 7 9 9 7 8 14 9 3 9 8 3 6 5 8 11 6 10 12 8 6 1 3 7 4 2 4 3 2 2 3 8 6 4 6 7 7 4 4 2 3 4 4 4 7 6 7 9 7 5 6 4 10 15 13 10 10 10 12 13 13 10 8 11 12
24 21 17 15 18 20 20 20 20 17 12 8 8 9 7 6 4 1 3 6 7 6 4 3 5 6 8 9 8 14 14 7 8 6 5 6 3 9 13 7 9 12 11 9 3 2 7 6 2 2 3 2 1 4 6 2 4 2 5 8 6 2 3 4 5 6 7 7 6 7 10 7 7 7 2 4 11 12 11 10 8 7 9 11 9 7 9 13
22 17 12 13 16 17 19 18 15 13 9 7 8 8 7 7 8 5 2 1 2 5 6 3 2 1 4 8 10 13 15 12 9 6 5 5 3 10 17 10 9 15 15 8 2 3 6 5 3 1 1 2 2 4 7 4 2 2 4 9 7 4 4 6 6 4 5 6 5 5 6 5 7 9 9 10 10 10 11 11 9 7 7 8 8 8 10 13
20 11 7 14 17 16 17 15 12 11 8 8 8 6 7 7 9 9 5 0 2 1 4 2 3 1 3 4 10 12 11 12 12 8 5 6 5 7 14 12 9 15 17 7 2 3 3 3 5 4 2 4 5 5 9 11 7 5 7 11 9 4 1 4 7 6 5 5 6 5 5 5 2 2 7 12 11 8 8 8 7 6 5 5 4 5 8 10
17 7 7 17 18 18 18 11 8 8 6 8 7 6 7 6 6 8 7 5 1 2 2 2 2 5 0 2 6 9 10 9 10 9 5 8 8 4 11 16 12 13 14 5 2 3 2 3 7 7 5 6 4 1 4 6 7 9 9 9 10 8 4 4 8 8 5 5 4 4 6 4 2 1 3 4 4 2 2 2 1 4 2 2 1 4 4 5
15 5 8 21 21 21 19 8 6 8 7 8 8 7 7 5 5 6 5 6 5 2 2 3 1 4 3 2 3 3 8 8 10 10 6 9 11 7 14 23 18 14 12 7 4 3 2 3 7 7 6 5 2 1 1 2 4 6 7 8 10 9 7 9 9 7 6 4 1 2 5 3 2 1 1 1 2 3 5 4 2 3 3 2 1 3 3 2
14 7 11 22 24 24 17 6 6 8 7 10 11 10 9 6 4 4 3 4 6 3 2 2 2 3 3 5 2 1 5 7 10 11 7 9 12 9 19 27 22 15 11 6 5 3 2 2 6 6 4 4 4 1 0 1 2 5 7 8 10 12 13 10 3 3 6 6 4 4 7 5 1 1 1 1 1 1 2 1 1 1 1 1 3 3 4 3
14 10 12 21 25 23 15 6 8 9 8 11 11 10 11 9 6 5 5 5 5 3 3 4 4 5 4 5 6 3 4 5 9 11 8 8 8 8 23 34 25 15 11 9 9 7 3 3 6 7 5 4 4 4 3 3 5 9 10 11 13 16 14 6 2 2 5 8 9 8 9 6 2 2 1 1 2 2 2 2 3 3 2 2 4 4 5 6
13 7 8 20 27 23 13 7 8 8 8 10 11 11 11 9 8 9 8 7 7 5 4 4 5 6 4 5 7 6 3 2 4 8 7 6 2 3 20 34 27 16 17 19 14 7 3 4 6 8 8 9 8 7 7 7 6 8 11 14 15 17 14 8 4 5 6 7 8 8 11 7 3 4 3 3 2 3 4 5 5 6 5 4 5 5 6 7
11 5 5 13 21 21 15 12 10 8 8 10 8 9 11 9 7 10 11 9 9 8 6 5 5 7 6 6 6 7 6 4 3 3 4 4 1 2 11 29 29 21 24 28 21 8 1 3 7 7 8 8 5 4 6 6 7 9 13 15 14 15 14 9 6 8 9 7 6 11 16 11 6 7 5 4 4 3 4 5 5 6 6 6 6 7 8 7
9 6 7 8 10 12 12 12 11 8 9 11 7 6 12 13 8 9 12 10 9 9 8 7 6 7 7 6 5 5 7 7 6 4 5 2 0 2 5 19 24 22 22 22 20 12 3 3 9 12 11 5 3 6 11 10 11 13 13 15 15 14 13 10 10 14 11 7 9 17 22 17 10 9 7 4 5 3 3 3 2 2 2 4 5 8 10 10
6 7 14 15 9 5 9 13 13 12 13 13 9 8 13 16 12 9 10 10 11 11 8 7 8 10 9 7 5 3 5 6 7 7 4 2 1 1 3 5 10 18 18 10 9 8 3 6 11 14 14 5 2 8 15 12 13 14 13 14 15 15 15 14 16 17 11 10 15 15 14 17 17 12 10 7 2 2 4 3 2 1 2 4 4 8 12 11
5 5 13 17 10 5 13 20 17 15 16 13 10 10 13 16 15 12 9 8 9 12 11 9 9 11 12 10 7 4 4 5 5 6 6 3 2 3 5 2 3 11 14 6 3 5 3 6 9 12 14 7 0 7 13 12 12 14 16 17 16 17 18 18 20 21 16 18 24 15 8 14 16 12 14 14 6 4 4 1 5 7 7 6 5 9 13 13
8 6 9 14 11 6 12 18 14 12 14 13 11 11 12 14 16 14 11 9 8 9 12 14 13 12 12 13 11 9 8 8 6 6 9 8 3 4 5 5 4 8 10 7 5 5 5 5 9 10 9 6 2 4 8 12 13 14 15 16 17 17 18 19 22 22 18 21 27 20 14 16 11 7 12 15 10 6 5 7 11 13 12 9 8 11 14 16
13 9 8 10 10 8 8 11 10 10 11 11 11 11 11 14 17 14 11 13 13 10 12 17 18 14 12 14 16 14 12 13 11 8 10 13 11 9 6 4 8 10 8 8 7 7 6 5 6 7 7 7 6 5 6 9 10 11 13 16 20 20 20 21 20 17 16 21 24 19 16 15 7 5 9 11 11 9 11 14 16 15 14 15 14 15 17 19
19 15 11 7 8 10 10 8 9 11 10 10 12 12 12 14 16 14 10 12 17 17 15 16 16 12 10 13 18 19 18 20 19 14 13 16 17 15 8 4 10 14 11 9 8 8 9 7 5 7 8 7 6 7 7 8 6 6 12 19 25 25 20 17 16 17 20 21 17 14 15 12 5 7 11 13 13 15 18 21 22 23 22 20 18 18 19 19
Wind_Direction
233 232 232 232 235 238 239 239 237 236 236 237 237 234 233 232 230 227 224 224 230 230 229 230 230 233 226 214 214 219 216 210 209 207 208 209 206 205 205 202 197 198 201 201 203 203 200 201 207 209 216 224 221 220 217 211 213 209 218 226 225 226 219 206 204 191 139 115 121 143 172 191 161 172 189 183 200 200 183 189 195 206 208 225 213 162 204 211
233 231 230 230 234 237 238 239 237 235 235 234 235 235 233 232 232 229 224 220 225 229 227 227 227 230 224 213 212 214 211 209 210 211 211 210 207 207 203 198 197 196 199 201 201 201 198 200 204 206 215 220 215 213 217 211 203 211 225 226 226 231 206 186 194 153 138 138 125 138 175 199 164 166 177 186 198 196 201 200 200 203 198 221 217 187 216 212
232 229 227 228 232 237 237 238 238 235 233 233 233 234 232 228 230 228 222 218 220 225 226 224 225 228 227 217 212 211 206 207 212 214 213 211 208 208 202 195 196 194 195 199 202 202 201 202 200 204 217 224 216 203 210 206 199 220 235 230 230 226 125 112 149 124 112 130 135 142 164 189 168 158 176 200 205 195 213 208 196 204 194 201 205 203 222 207
230 227 225 225 229 236 237 237 238 236 232 232 231 232 232 227 227 225 217 216 217 221 223 222 222 226 229 222 215 208 200 208 220 217 213 210 208 206 200 192 189 189 188 190 196 202 204 203 199 203 219 231 220 206 208 193 190 214 221 237 249 226 180 145 153 139 124 135 148 138 150 185 177 167 181 205 217 203 221 218 203 210 194 189 198 206 219 205
229 227 224 223 226 233 236 237 238 237 232 232 232 231 232 228 226 224 215 213 215 219 220 219 221 224 229 225 215 202 191 206 227 220 216 210 208 205 199 192 187 183 184 187 189 193 200 201 198 204 218 231 218 211 216 199 199 218 220 240 270 276 223 159 140 137 135 143 151 149 158 171 167 188 200 209 221 204 233 221 209 217 195 197 208 209 217 208
227 226 222 220 224 231 234 235 236 237 232 231 232 231 234 230 225 224 216 208 211 218 216 214 217 221 228 224 211 195 188 193 233 221 218 209 206 204 199 194 188 184 182 187 190 189 195 195 194 201 210 227 219 213 220 204 202 223 220 231 247 269 251 144 141 149 146 162 175 169 156 150 171 205 207 214 226 236 7 200 194 211 192 204 218 214 218 214
225 224 220 218 221 228 231 232 234 235 233 231 234 232 235 234 228 225 218 204 205 215 213 207 210 213 218 210 199 196 198 210 311 225 216 207 205 204 202 198 191 187 183 185 191 190 192 193 194 199 204 222 221 218 221 203 197 221 226 217 226 241 238 136 147 166 168 192 186 154 154 183 201 210 195 217 230 239 272 258 205 189 181 202 221 220 222 222
223 223 220 216 218 224 226 228 231 232 232 232 235 235 237 236 230 227 223 211 202 211 211 204 203 206 209 198 190 203 210 210 243 254 212 205 206 205 203 200 193 190 186 186 192 191 190 196 196 197 207 216 219 219 212 197 198 220 232 214 204 194 171 139 151 183 193 207 185 172 216 211 212 227 209 229 236 230 245 253 237 203 183 201 219 223 223 222
219 219 219 216 217 221 223 224 224 227 228 228 233 234 237 236 232 230 229 224 206 206 209 205 204 203 204 198 190 209 218 204 212 274 204 200 203 204 202 196 192 190 187 188 194 195 192 200 200 198 214 214 214 215 197 198 210 215 222 220 199 189 175 160 182 197 200 206 191 199 225 218 203 240 248 242 241 218 221 239 236 214 198 202 211 220 223 221
214 214 216 216 217 221 224 224 221 223 225 225 227 227 234 235 234 235 230 229 220 206 207 207 205 199 195 195 188 211 220 202 203 219 179 192 200 202 199 194 192 189 187 189 193 199 196 201 203 201 220 217 207 209 198 206 251 216 218 218 206 201 184 185 203 196 197 210 202 212 227 207 178 213 243 228 213 199 202 217 219 210 208 208 206 214 222 222
212 212 214 215 216 219 221 223 221 221 223 223 223 221 226 229 231 235 229 227 231 215 207 204 201 198 193 191 187 207 217 203 204 208 162 178 196 200 197 192 191 190 189 190 190 196 197 196 193 186 206 219 196 201 208 208 298 234 209 208 211 210 199 203 213 199 203 213 202 220 243 204 167 212 230 196 177 187 193 195 202 205 207 211 209 211 219 221
212 211 212 213 213 216 217 220 220 218 218 218 219 218 218 220 222 227 225 222 231 223 207 201 199 199 192 191 198 208 216 209 207 212 198 175 192 201 202 197 193 192 191 192 190 189 192 197 191 179 190 224 184 183 207 199 212 207 193 209 211 214 221 215 216 210 210 211 185 197 254 225 201 218 225 213 207 202 193 195 197 200 202 208 209 209 219 220
210 208 209 210 211 214 217 218 217 216 215 214 217 215 210 212 217 223 222 219 231 228 207 199 200 200 190 193 209 209 210 210 206 210 211 203 206 207 206 203 196 194 193 194 194 191 191 198 194 186 217 242 191 148 156 175 191 196 199 228 211 209 231 217 214 207 203 202 171 177 250 234 217 217 213 217 224 211 198 203 198 196 197 201 205 207 217 219
207 206 205 206 209 213 216 216 213 213 215 214 215 215 204 199 209 218 220 221 231 230 208 201 201 196 190 197 212 206 203 203 203 209 215 220 227 215 204 203 199 195 192 194 196 196 199 197 190 190 230 244 190 147 144 159 187 194 198 226 215 215 230 208 201 191 190 188 166 188 248 246 238 216 199 208 213 198 201 209 202 199 195 195 200 205 214 219
203 205 203 203 206 207 210 210 208 210 213 214 213 212 201 194 205 211 212 219 228 227 207 200 199 190 187 200 209 204 204 203 203 212 218 222 223 205 196 199 199 195 193 193 193 202 208 193 183 195 215 208 167 166 171 165 193 197 192 209 214 221 216 187 189 189 194 180 169 192 236 246 253 214 178 194 199 190 206 213 208 205 197 195 200 209 216 220
199 200 200 200 202 202 204 202 203 207 208 210 210 210 201 195 206 211 210 213 224 225 208 194 191 187 184 199 204 201 202 205 204 204 209 213 211 198 191 194 196 197 196 196 197 210 211 191 184 202 200 188 176 180 178 179 197 200 208 211 197 204 199 165 181 197 200 175 176 201 233 245 243 180 159 188 193 191 211 217 215 212 205 200 200 210 217 216
198 198 199 199 199 200 201 199 200 202 202 204 206 207 202 196 199 206 211 214 224 227 223 215 188 186 195 188 190 194 195 203 202 193 193 198 201 196 189 187 192 197 197 198 203 205 199 192 200 205 198 197 193 190 185 192 196 190 212 224 195 201 210 178 168 194 196 185 189 205 234 252 243 154 154 189 198 201 213 218 221 215 209 207 202 207 213 214
199 197 198 197 197 198 197 198 198 199 199 199 200 199 200 202 201 204 208 212 225 236 240 257 202 185 196 182 185 192 194 198 193 185 182 184 191 191 183 180 186 190 187 189 196 190 185 193 207 200 199 201 197 196 194 193 193 187 196 210 202 207 218 207 155 172 186 198 212 208 223 243 248 230 203 195 197 210 216 218 224 219 212 211 210 211 213 218
198 197 197 195 195 195 194 194 194 196 195 195 195 189 190 196 199 206 209 209 219 234 239 252 230 224 249 179 186 193 193 191 184 181 180 180 186 185 178 175 175 172 166 166 181 182 180 183 195 199 199 199 198 199 199 190 185 188 191 204 213 210 218 215 126 144 181 197 217 220 227 237 241 243 238 213 192 206 223 222 220 217 216 216 217 218 216 224
197 197 196 193 192 191 191 190 190 192 192 194 188 174 172 174 173 200 207 210 216 220 269 253 260 315 330 168 175 182 186 187 181 177 178 181 184 178 171 167 162 162 165 161 161 181 186 180 198 206 195 194 198 198 203 204 188 190 200 213 224 222 217 207 139 130 183 208 217 222 235 241 242 243 244 231 203 203 221 224 220 216 216 218 219 220 221 229
195 196 192 191 189 187 188 189 191 191 191 195 185 173 166 165 161 186 189 207 219 219 243 263 259 306 329 142 161 174 175 179 183 180 177 180 181 173 164 162 156 164 179 158 135 165 188 201 207 204 192 191 197 197 204 213 201 200 213 216 223 229 220 186 151 140 170 223 233 229 240 245 246 245 244 239 224 218 223 225 225 222 220 221 223 226 231 235
192 193 189 188 186 185 185 187 192 191 190 195 191 190 185 178 189 200 182 194 219 217 234 249 241 262 273 125 150 169 169 168 181 186 180 173 174 170 163 166 165 172 174 154 126 146 195 224 209 197 191 188 193 199 206 214 207 209 217 214 220 223 205 151 151 156 168 220 245 247 254 255 255 252 246 241 237 234 232 231 231 228 225 225 223 226 234 239
188 188 185 185 182 180 183 185 188 188 189 193 195 198 198 192 198 201 177 156 203 214 228 236 235 250 263 264 147 162 169 170 175 184 183 175 175 172 166 170 176 176 170 163 159 166 193 217 202 193 192 191 192 198 204 207 207 214 210 211 222 214 216 213 167 162 178 225 269 281 275 271 268 263 253 243 240 241 237 234 234 230 228 227 223 225 232 239
186 184 181 181 179 178 180 183 182 185 190 190 192 197 198 197 199 194 164 125 83 203 221 231 232 240 254 268 175 162 170 178 180 184 184 179 177 174 170 173 176 176 173 175 179 184 191 183 187 191 191 193 193 195 201 201 205 216 212 213 218 210 223 232 132 153 192 223 246 279 279 269 259 255 252 241 235 236 234 230 230 227 227 228 226 228 231 236
185 183 179 177 178 178 177 179 181 185 188 185 189 193 193 193 195 190 155 94 302 173 195 218 219 234 242 253 253 201 159 184 189 191 186 181 180 175 176 180 176 173 174 178 183 193 197 167 175 187 189 192 195 195 200 202 203 212 212 214 216 216 220 193 131 157 246 232 194 223 266 264 244 244 244 238 232 229 225 223 224 225 225 224 225 229 232 236
184 184 180 177 179 177 173 175 181 185 184 185 192 190 186 181 173 170 149 53 280 172 155 180 186 226 230 235 244 221 286 252 196 196 191 186 188 185 180 180 179 177 171 175 189 196 189 170 174 186 187 190 195 196 197 197 208 217 200 201 213 226 224 206 177 202 260 265 147 192 258 271 258 251 246 239 238 232 224 221 224 227 226 221 222 229 235 239
184 184 182 180 181 176 170 172 177 180 181 186 192 185 183 173 160 157 153 305 263 157 140 161 168 198 204 216 220 197 221 196 177 196 194 190 193 200 199 177 169 178 166 169 195 178 171 176 179 185 184 188 196 199 196 196 210 213 153 172 197 216 219 213 212 237 265 306 267 204 241 276 271 257 255 251 250 245 233 227 228 230 230 225 222 228 234 238
185 184 183 183 183 178 173 176 175 175 181 188 188 179 176 172 164 159 169 225 189 134 134 155 164 181 185 198 197 192 203 158 152 189 191 192 195 202 221 190 180 178 169 178 189 155 171 180 181 184 186 194 201 200 193 191 205 192 134 164 187 205 216 214 222 244 276 327 266 220 199 262 266 245 241 242 242 245 238 233 233 231 230 229 226 226 231 236
185 184 185 183 182 179 176 180 177 175 182 187 184 176 169 169 165 160 209 208 145 105 140 157 160 167 160 162 180 198 217 159 111 175 181 191 196 193 219 211 204 178 171 186 183 142 170 181 182 187 192 198 198 199 188 187 198 144 125 124 131 155 166 170 222 243 272 275 259 235 196 241 275 253 222 224 229 236 238 238 238 232 225 224 226 224 225 232
183 181 182 181 180 176 169 172 176 176 177 178 178 172 165 164 158 159 203 201 107 114 138 154 161 154 148 152 172 195 212 186 75 159 170 183 189 184 182 199 213 172 157 109 108 123 115 164 182 187 201 194 176 167 172 173 161 132 119 104 105 115 117 129 204 93 274 259 253 235 217 230 279 257 205 218 226 226 239 245 240 233 225 221 223 223 222 228
182 179 177 179 179 172 162 163 171 173 170 170 169 162 155 154 162 201 194 169 50 149 147 151 157 148 151 167 175 182 201 188 136 162 165 159 172 173 165 182 193 92 132 88 74 106 120 151 180 156 189 167 136 90 54 121 140 144 142 135 133 134 120 147 173 141 239 251 263 240 217 214 241 244 184 230 234 214 237 250 243 234 227 221 221 222 222 226
178 177 178 180 176 169 166 165 166 167 166 165 162 157 153 156 213 214 181 51 65 175 167 154 156 154 156 169 183 183 189 183 165 179 177 160 172 180 179 189 164 120 169 160 133 142 149 165 145 89 168 166 142 132 97 123 160 171 168 165 174 175 159 194 190 178 236 236 88 62 203 216 242 256 249 247 247 231 234 247 250 247 238 230 224 221 223 225
172 176 180 180 173 169 169 163 160 160 164 163 157 157 171 191 202 208 179 131 340 206 166 157 159 158 154 165 191 189 186 184 176 187 185 169 179 191 191 192 184 179 182 158 148 150 152 251 142 139 183 190 172 167 161 168 185 188 185 183 188 176 168 199 196 205 241 225 128 121 148 254 261 268 252 243 246 245 240 239 243 246 245 243 229 211 215 222
171 175 177 174 171 170 162 157 161 163 164 161 153 156 193 204 194 196 195 202 359 14 168 166 164 159 159 171 180 175 185 201 182 188 188 172 181 194 188 187 198 232 94 145 159 159 156 185 193 173 179 192 191 191 172 150 172 190 195 193 193 183 187 200 196 211 227 193 141 156 171 237 240 331 297 255 257 257 253 250 249 250 247 247 246 236 234 239
167 170 171 165 165 168 161 157 160 161 162 162 154 164 188 196 195 192 197 204 100 114 210 184 168 161 169 178 171 170 178 193 181 185 184 175 182 186 177 181 196 206 143 157 178 169 164 179 187 173 203 185 185 188 152 129 145 190 174 188 202 209 207 201 198 210 207 0 192 190 225 248 253 309 302 275 269 259 250 250 248 251 248 244 250 254 256 260
163 166 165 156 157 163 165 167 164 157 160 165 169 184 188 196 196 181 174 191 195 161 176 197 176 166 172 174 170 173 167 127 172 177 185 185 188 184 177 179 188 197 189 164 144 177 177 163 136 135 19 182 173 169 163 155 161 174 169 191 196 341 223 206 201 109 88 274 235 193 239 264 273 284 266 242 245 245 235 235 238 243 243 236 241 249 254 259
161 164 159 152 155 153 155 165 167 165 169 178 189 191 191 205 214 179 155 182 197 162 145 199 184 171 170 167 174 173 160 143 172 170 177 186 197 187 181 186 189 198 222 206 202 206 170 115 107 151 141 185 36 85 163 164 140 162 180 176 129 29 323 224 218 185 195 252 244 205 232 250 251 267 248 218 231 233 224 227 235 241 237 229 224 228 245 256
156 158 154 156 159 152 150 152 158 167 176 192 209 205 203 208 210 183 152 186 200 182 183 216 193 188 177 167 169 168 164 168 175 170 170 181 212 184 176 189 196 203 234 243 254 202 154 110 71 184 153 162 39 114 147 16 0 171 163 150 148 199 203 184 211 213 210 232 250 232 233 240 233 241 248 204 223 229 231 231 228 231 233 230 225 218 238 253
150 146 149 164 164 158 156 151 152 169 182 196 209 205 205 209 206 208 221 256 235 206 205 194 154 226 213 177 161 161 172 174 165 169 184 187 205 181 179 183 187 204 227 241 249 199 169 131 132 206 121 132 172 173 168 167 347 346 156 169 194 232 205 193 205 222 225 229 249 243 228 235 234 234 238 232 224 220 224 227 222 220 227 231 231 218 222 239
149 139 150 169 165 159 159 155 159 175 189 205 213 204 198 210 215 220 229 244 28 242 222 206 130 145 301 200 166 161 174 172 162 175 196 182 169 174 188 186 173 199 212 221 288 237 209 151 140 132 106 163 186 196 186 181 174 175 184 184 191 197 192 218 215 220 236 238 246 249 242 242 235 235 237 237 239 229 222 229 219 198 204 219 231 220 216 228
148 139 163 171 169 160 155 153 172 186 199 211 219 220 211 222 234 235 233 212 185 17 354 359 162 170 109 230 185 166 169 168 166 179 183 178 185 190 193 191 178 186 196 195 269 252 237 144 138 139 169 186 194 200 187 192 183 182 189 185 184 186 172 196 208 206 212 234 249 260 265 252 146 136 232 229 261 298 3 326 184 130 144 189 241 249 234 227
151 144 169 174 174 164 157 160 192 197 208 213 216 220 214 231 252 252 248 213 213 244 356 351 214 165 142 211 243 180 178 175 171 185 185 185 208 218 185 186 182 175 180 179 201 250 329 107 128 139 166 166 110 40 171 237 225 202 204 196 187 188 190 201 210 194 182 204 273 297 277 270 101 75 262 101 29 27 33 21 44 72 72 69 311 260 256 239
158 142 154 172 176 169 167 183 202 201 220 219 222 223 215 224 247 259 266 218 212 202 196 273 248 195 191 192 194 269 221 196 178 191 192 186 213 208 172 177 177 171 178 174 182 238 327 108 125 115 115 99 81 106 155 326 244 209 217 210 196 196 201 206 210 161 181 198 199 227 251 243 139 65 304 355 38 13 6 15 47 22 24 339 307 266 239 233
153 131 144 171 178 175 179 195 192 201 218 217 224 226 217 227 234 227 225 215 213 189 185 233 238 235 231 177 166 204 238 216 191 197 198 193 213 181 167 175 175 170 181 173 174 201 203 144 136 127 133 135 131 164 193 217 216 209 208 204 202 201 194 178 117 163 207 209 196 213 243 243 162 115 198 205 166 196 225 214 215 225 213 248 272 243 216 214
139 115 145 174 180 186 201 218 201 203 206 206 222 224 216 227 228 224 230 227 223 219 213 224 221 229 226 169 181 206 216 228 202 201 210 207 209 139 172 179 176 175 183 176 170 182 184 179 169 150 159 174 176 185 190 192 202 207 201 196 201 199 181 164 180 200 215 211 189 208 240 243 168 154 171 158 161 186 188 195 218 224 215 222 231 218 207 207
149 135 147 173 186 199 222 240 229 220 203 199 216 224 221 230 225 215 224 234 235 233 242 249 225 227 223 183 195 216 205 197 186 213 241 204 139 358 185 183 183 186 182 173 165 153 86 214 207 200 188 178 171 161 141 144 167 187 196 191 190 195 187 175 192 213 219 213 202 222 233 233 195 183 183 147 154 165 150 171 206 210 210 223 228 220 210 209
162 170 162 166 186 203 223 236 234 226 207 200 200 201 213 226 230 207 203 215 231 229 242 255 230 224 223 188 191 228 211 190 177 213 266 251 180 353 188 191 194 185 172 167 164 156 114 217 220 227 217 182 89 129 134 141 169 178 185 185 178 183 189 188 207 219 213 204 230 231 226 229 220 193 189 177 171 163 121 122 136 138 185 235 229 216 209 207
171 178 174 175 175 186 206 211 214 216 210 206 204 199 209 218 222 210 193 201 218 215 219 241 226 223 226 200 182 218 213 194 185 199 230 269 263 105 127 205 202 169 156 156 163 155 153 201 207 222 225 222 72 151 151 150 170 170 170 179 177 179 191 203 219 224 203 202 235 233 208 220 228 211 208 220 196 115 110 88 18 345 297 288 241 206 204 206
169 162 172 181 185 191 202 202 203 210 211 208 207 208 213 216 215 214 202 195 210 209 210 225 223 218 223 217 208 208 206 203 201 199 185 161 228 200 145 144 206 167 157 146 156 163 177 200 195 210 225 233 195 170 164 153 163 172 176 180 178 184 196 207 221 224 211 219 238 237 203 225 231 218 222 226 205 127 129 180 275 257 255 276 257 215 206 207
180 168 170 189 203 205 205 205 201 208 213 211 212 215 217 218 216 215 208 197 199 198 203 221 230 221 216 217 217 216 208 207 221 209 174 158 191 223 183 168 172 173 170 160 162 180 189 190 180 191 221 229 222 211 179 160 165 176 180 180 177 184 198 211 222 222 213 226 240 242 245 252 242 212 223 217 188 163 195 235 250 246 237 233 232 225 216 215
193 188 172 187 206 199 195 202 200 209 213 207 210 214 216 221 219 215 211 209 211 204 197 212 225 226 219 217 218 219 213 212 230 227 182 177 192 199 206 197 163 164 177 176 168 173 180 180 161 169 215 221 196 190 171 154 160 173 178 181 182 188 200 209 218 216 205 221 236 237 243 253 234 182 214 208 188 203 229 238 247 251 237 217 213 222 225 224
200 198 186 190 212 199 192 197 202 211 215 208 210 211 213 221 218 214 213 210 215 221 217 215 222 226 226 224 220 221 218 215 224 230 209 203 208 201 194 183 172 174 176 176 178 179 180 181 161 167 203 213 177 162 147 128 136 190 197 192 192 196 203 211 220 218 212 218 227 227 233 242 212 181 204 203 195 208 223 230 238 244 240 225 214 218 228 239